User: anonymous   Login
Location: Unspecified
(0.0000°N, 0.0000°E)
Time: 18:21:12
(UTC+00:00)
Language:

STARLINK-33635 - Orbit

View from above orbital plane
View from above orbital plane
View from above satellite
View from above satellite

Ground track
Ground track

The orbit is defined by the following mean orbital elements,

1 63065U          26145.08441413 +.00000000 +00000-0 +38310-3 0 00004
2 63065  42.9974  75.6094 0001745 274.2782  85.7871 15.27601633    07
Epoch (UTC): 25 May 2026 02:01:33
Eccentricity: 0.0001745
inclination: 42.9974°
perigee height: 482 km
apogee height: 484 km
right ascension of ascending node: 75.6094°
argument of perigee: 274.2782°
revolutions per day: 15.27601633
mean anomaly at epoch: 85.7871°

The dashed part of the orbit path shows where the satellite is in the earth's shadow,  

DLR